Location: Venise Bay
(45.0825°N, 73.1481°W)
Time: 10:36:58
(UTC-05:00)

ISS - Visible Passes

Search period start: 17 January 2020 00:00
Search period end: 27 January 2020 00:00
Orbit: 415 x 421 km, 51.6° (Epoch: 18 January)

Date Brightness Start Highest point End Pass type
(mag) Time Alt. Az. Time Alt. Az. Time Alt. Az.
19 Jan -0.7 19:23:58 10° SW 19:24:18 12° SW 19:24:18 12° SW visible
20 Jan -2.5 18:36:17 10° SSW 18:38:39 31° S 18:38:39 31° S visible
21 Jan -2.2 17:48:51 10° S 17:51:30 22° SE 17:52:55 17° ESE visible
21 Jan -1.1 19:24:43 10° WSW 19:25:52 20° WSW 19:25:52 20° WSW visible
22 Jan -3.9 18:36:40 10° WSW 18:40:02 88° SE 18:40:03 88° ESE visible
23 Jan -3.5 17:48:45 10° SW 17:52:03 56° SE 17:54:10 20° ENE visible
23 Jan -1.1 19:25:49 10° W 19:27:06 20° WNW 19:27:06 20° WNW visible
24 Jan -3.1 18:37:34 10° W 18:40:49 45° NNW 18:41:09 43° N visible
25 Jan -3.5 17:49:23 10° WSW 17:52:43 64° NNW 17:55:08 17° NE visible
25 Jan -1.0 19:27:00 10° WNW 19:28:04 17° NW 19:28:04 17° NW visible
26 Jan -2.5 18:38:42 10° WNW 18:41:43 30° NNW 18:42:01 29° N visible
